THORAD AGENA D DEB, 5185

Orbit data source: Space-Track

THORAD AGENA D DEB, 5185 is space debris in SSO originally from a launch on Wed, 08 Apr 1970 UTC launched from the Air Force Western Test Range (AFWTR). Debris objects in space refer to the collection of defunct objects orbiting the Earth. Examples of debris include non-operational satellites, rocket bodies, and fragments generated from explosions, collisions, or faulty payload assembly.

Loading next visibility...
Identifier
5185, 1970-025KB
Orbit
SSO
Country
Flag of USUS
Related business
Manufacturer
Unknown
Mission
Spacecraft
Bus & Motor
Unknown
Mass
Unknown
Launch date (UTC)
1970-04-08 (56 years ago)
Launch vehicle
Unknown
Launch site
Air Force Western Test Range (AFWTR)
Object type
Payload
Rocket body
Debris
Shape & HBR
Unknown shape, 0.1 m
Radar Cross Section
Medium (>0.1 m² and <1 m²)

Expand to show TLE details & history
Last TLE update: 11 hours ago

TLE from 11 hours ago
0 THORAD AGENA D DEB
1 05185U 70025KB  26208.17725483  .00001662  00000-0  11765-2 0  9995
2 05185  99.6415 283.9091 0066083 117.8796 242.9079 13.98273802807459
Epoch: 2026-07-27T04:15Z
TLE epoch observation values (Epoch: 2026-07-27T04:15:14.817Z)
Latitude
-0.00007°
Longitude
-84.7672°
Altitude
924.791 km
Speed
7.378 km/s
True Right ascension
18h 55m 38s
True Declination
0° 00' 00"
Sunlit
Object was in full shadow at epoch
Visualization orbit readout
Latitude
Unknown
Longitude
Unknown
Altitude
Unknown
Speed
Unknown
Apparent Right ascension
Unknown
Apparent Declination
Unknown
Sunlit
N/A
Visualization observer readout
Local Sidereal Time
04:38:51
Azimuth
Unknown
Elevation
Unknown
Doppler factor
Unknown
Orbital elements
Apogee altitude
945.089 km
Perigee altitude
848.936 km
Semi-major axis
7,275.15 km
Eccentricity
0.00661
Inclination
99.6415°
RAAN
283.9091°
Arg. of periapsis
117.8796°
True anomaly
242.23628°
Mean anomaly
242.9079°
Eccentric anomaly
242.57183°
Mean motion
3.49768 °/min
Orbital period
102.93 mins
BSTAR
0.0011765
Loading maneuver chart data...
Computing Atmospheric mass density...

Documentation

Showing up to 5 results
|